Charlevoix, MI

6:23 AM EDT on October 01, 2016 (GMT -0400)
Charlevoix Municipal

Weather History for KCVX - December, 2012

Change the Weather History Date:

Wednesday, December 5, 2012

  Actual Average Record
Temperature  
Mean Temperature 26 °F -  
Max Temperature 31 °F 39 °F 64 °F (2001)
Min Temperature 22 °F 30 °F 17 °F (2005)
Degree Days  
Heating Degree Days 38    
Moisture  
Dew Point 20 °F    
Average Humidity 71    
Maximum Humidity 93    
Minimum Humidity 57    
Precipitation  
Precipitation 0.00 in - - ()
Sea Level Pressure  
Sea Level Pressure 30.35 in    
Wind  
Wind Speed 12 mph (North)    
Max Wind Speed 20 mph    
Max Gust Speed 29 mph    
Visibility 10 miles    
Events      
Averages and records for this station are not official NWS values.
T = Trace of Precipitation, MM = Missing Value Source: NWS Daily Summary

Daily Weather History Graph

Daily Weather History Graph

Search for Another Location

Airport or City:

Trip Planner

Search our weather history database for the weather conditions in past years. The results will help you decide how hot, cold, wet, or windy it might be!

Date:

Astronomy

Dec. 05, 2012 Rise Set
Actual Time 8:05 AM EST 4:58 PM EST
Civil Twilight 7:31 AM EST 5:32 PM EST
Nautical Twilight 6:54 AM EST 6:09 PM EST
Astronomical Twilight 6:18 AM EST 6:45 PM EST
Moon No Moon Rise 12:15 PM EST (12/5)
Length of Visible Light 10h 00m
Length of Day
8h 53m
Waning Gibbous, 60% of the Moon is Illuminated
Dec 5
Waning Gibbous
Dec 6
Last Quarter
Dec 13
New
Dec 20
First Quarter
Dec 28
Full

Hourly Weather History & Observations

Time (EST) Temp. Windchill Dew Point Humidity Pressure Visibility Wind Dir Wind Speed Gust Speed Precip Events Conditions
12:14 AM 30.2 °F 17.8 °F 18.5 °F 62% 30.20 in 10.0 mi WNW 19.6 mph 25.3 mph N/A   Mostly Cloudy
12:35 AM 30.7 °F 20.9 °F 19.9 °F 64% 30.21 in 10.0 mi WNW 12.7 mph 27.6 mph N/A   Mostly Cloudy
12:55 AM 30.9 °F 19.8 °F 20.5 °F 65% 30.21 in 10.0 mi WNW 16.1 mph 26.5 mph N/A   Mostly Cloudy
1:14 AM 31.1 °F 18.9 °F 20.7 °F 65% 30.21 in 10.0 mi WNW 19.6 mph 26.5 mph N/A   Mostly Cloudy
1:35 AM 31.1 °F 20.5 °F 20.7 °F 65% 30.22 in 10.0 mi WNW 15.0 mph 27.6 mph N/A   Mostly Cloudy
1:54 AM 31.3 °F 19.2 °F 21.2 °F 66% 30.22 in 10.0 mi NW 19.6 mph 25.3 mph N/A   Overcast
2:15 AM 31.3 °F 19.9 °F 22.3 °F 69% 30.23 in 10.0 mi WNW 17.3 mph 27.6 mph N/A   Mostly Cloudy
2:55 AM 31.8 °F 20.2 °F 23.4 °F 71% 30.25 in 10.0 mi NW 18.4 mph 28.8 mph N/A   Overcast
3:15 AM 31.5 °F 20.9 °F 21.2 °F 66% 30.26 in 10.0 mi NNW 15.0 mph 28.8 mph N/A   Overcast
3:35 AM 31.8 °F 21.4 °F 22.5 °F 68% 30.26 in 10.0 mi NW 15.0 mph 25.3 mph N/A   Overcast
3:55 AM 31.5 °F 19.4 °F 21.9 °F 68% 30.27 in 10.0 mi NNW 19.6 mph 26.5 mph N/A   Overcast
4:15 AM 31.5 °F 19.8 °F 21.7 °F 67% 30.27 in 10.0 mi NNW 18.4 mph 28.8 mph N/A   Mostly Cloudy
4:35 AM 31.1 °F 19.7 °F 20.8 °F 66% 30.28 in 10.0 mi NNW 17.3 mph 27.6 mph N/A   Mostly Cloudy
4:54 AM 31.1 °F 19.7 °F 21.9 °F 69% 30.29 in 10.0 mi NNW 17.3 mph 27.6 mph N/A   Overcast
5:14 AM 31.1 °F 19.7 °F 19.0 °F 61% 30.29 in 10.0 mi NW 17.3 mph 28.8 mph N/A   Mostly Cloudy
5:35 AM 31.1 °F 19.3 °F 18.7 °F 60% 30.30 in 10.0 mi NW 18.4 mph 26.5 mph N/A   Mostly Cloudy
5:55 AM 31.1 °F 20.1 °F 18.3 °F 59% 30.32 in 10.0 mi NNW 16.1 mph 25.3 mph N/A   Overcast
6:14 AM 31.1 °F 19.7 °F 17.2 °F 57% 30.33 in 10.0 mi NNW 17.3 mph 27.6 mph N/A   Overcast
6:35 AM 31.1 °F 19.7 °F 17.6 °F 57% 30.34 in 10.0 mi North 17.3 mph 28.8 mph N/A   Overcast
6:55 AM 30.9 °F 19.8 °F 18.5 °F 60% 30.36 in 10.0 mi NNW 16.1 mph 25.3 mph N/A   Overcast
7:15 AM 30.9 °F 21.2 °F 18.7 °F 61% 30.37 in 10.0 mi NNW 12.7 mph 23.0 mph N/A   Overcast
7:34 AM 30.7 °F 20.4 °F 18.7 °F 61% 30.38 in 10.0 mi NNW 13.8 mph 21.9 mph N/A   Overcast
7:54 AM 30.6 °F 19.0 °F 18.5 °F 61% 30.38 in 10.0 mi NW 17.3 mph 25.3 mph N/A   Overcast
9:35 AM 30.6 °F 20.7 °F 19.9 °F 65% 30.42 in 10.0 mi NNW 12.7 mph 19.6 mph N/A   Overcast
9:55 AM 30.4 °F 20.5 °F 19.9 °F 65% 30.42 in 10.0 mi North 12.7 mph 18.4 mph N/A   Overcast
10:15 AM 30.6 °F 21.8 °F 20.5 °F 66% 30.43 in 10.0 mi North 10.4 mph 20.7 mph N/A   Overcast
10:35 AM 30.7 °F 21.4 °F 20.7 °F 66% 30.43 in 10.0 mi NNW 11.5 mph - N/A   Overcast
10:55 AM 30.6 °F 22.4 °F 20.7 °F 67% 30.43 in 10.0 mi North 9.2 mph - N/A   Overcast
11:15 AM 30.2 °F 22.6 °F 21.4 °F 70% 30.44 in 10.0 mi North 8.1 mph - N/A   Overcast
11:35 AM 30.6 °F 22.4 °F 21.2 °F 68% 30.44 in 10.0 mi North 9.2 mph - N/A   Overcast
11:55 AM 30.2 °F 21.3 °F 20.1 °F 66% 30.43 in 10.0 mi NNE 10.4 mph - N/A   Overcast
12:15 PM 30.4 °F 24.5 °F 19.6 °F 64% 30.42 in 10.0 mi North 5.8 mph 9.2 mph N/A   Overcast
12:35 PM 30.2 °F 24.3 °F 19.2 °F 64% 30.43 in 10.0 mi NNE 5.8 mph - N/A   Overcast
12:55 PM 30.2 °F 24.3 °F 19.4 °F 64% 30.43 in 10.0 mi NNE 5.8 mph - N/A   Overcast
1:15 PM 30.2 °F 25.4 °F 19.8 °F 65% 30.43 in 10.0 mi NNW 4.6 mph - N/A   Overcast
1:34 PM 30.0 °F 23.2 °F 19.8 °F 66% 30.42 in 10.0 mi North 6.9 mph - N/A   Overcast
1:55 PM 30.2 °F 24.3 °F 20.3 °F 67% 30.42 in 10.0 mi North 5.8 mph - N/A   Overcast
2:15 PM 30.0 °F - 19.8 °F 66% 30.43 in 10.0 mi Calm Calm - N/A   Overcast
2:35 PM 30.2 °F 24.3 °F 20.5 °F 67% 30.42 in 10.0 mi North 5.8 mph - N/A   Overcast
2:55 PM 30.2 °F 26.7 °F 20.3 °F 67% 30.42 in 10.0 mi NNE 3.5 mph - N/A   Overcast
3:15 PM 30.2 °F - 20.7 °F 68% 30.40 in 10.0 mi Calm Calm - N/A   Overcast
3:35 PM 29.7 °F 24.7 °F 20.3 °F 68% 30.40 in 10.0 mi ENE 4.6 mph - N/A   Overcast
3:55 PM 29.1 °F - 20.1 °F 69% 30.39 in 10.0 mi Calm Calm - N/A   Mostly Cloudy
4:15 PM 29.1 °F - 20.3 °F 70% 30.39 in 10.0 mi Calm Calm - N/A   Scattered Clouds
4:35 PM 29.3 °F - 20.3 °F 69% 30.39 in 10.0 mi Calm Calm - N/A   Mostly Cloudy
4:55 PM 28.8 °F 25.0 °F 20.5 °F 71% 30.38 in 10.0 mi East 3.5 mph - N/A   Scattered Clouds
5:15 PM 28.2 °F - 20.3 °F 72% 30.38 in 10.0 mi Calm Calm - N/A   Clear
5:35 PM 26.8 °F - 20.8 °F 78% 30.38 in 10.0 mi Calm Calm - N/A   Clear
5:55 PM 25.3 °F - 19.9 °F 80% 30.38 in 10.0 mi Calm Calm - N/A   Clear
6:15 PM 25.9 °F 21.7 °F 20.3 °F 79% 30.36 in 10.0 mi SE 3.5 mph - N/A   Clear
6:34 PM 25.0 °F - 20.3 °F 82% 30.37 in 10.0 mi Calm Calm - N/A   Clear
6:55 PM 23.5 °F - 19.9 °F 86% 30.37 in 10.0 mi Calm Calm - N/A   Clear
7:15 PM 23.0 °F - 20.1 °F 89% 30.38 in 10.0 mi Calm Calm - N/A   Clear
7:35 PM 23.0 °F - 21.0 °F 92% 30.38 in 10.0 mi Calm Calm - N/A   Clear
7:55 PM 22.3 °F - 20.7 °F 93% 30.37 in 10.0 mi Calm Calm - N/A   Clear
8:15 PM 22.1 °F - 20.3 °F 93% 30.37 in 10.0 mi Calm Calm - N/A   Clear
8:35 PM 22.3 °F 16.1 °F 20.3 °F 92% 30.36 in 10.0 mi SE 4.6 mph - N/A   Clear
8:55 PM 23.9 °F 18.0 °F 20.1 °F 85% 30.36 in 10.0 mi SSE 4.6 mph - N/A   Clear
9:15 PM 24.6 °F 18.8 °F 20.3 °F 84% 30.35 in 10.0 mi SE 4.6 mph - N/A   Clear
9:35 PM 24.6 °F 17.7 °F 20.3 °F 84% 30.34 in 10.0 mi SE 5.8 mph - N/A   Clear
9:54 PM 24.3 °F 17.3 °F 20.3 °F 85% 30.33 in 10.0 mi SE 5.8 mph - N/A   Clear
10:15 PM 24.3 °F 17.3 °F 20.3 °F 85% 30.32 in 10.0 mi SE 5.8 mph - N/A   Clear
10:35 PM 24.4 °F 17.5 °F 20.3 °F 84% 30.30 in 10.0 mi SE 5.8 mph - N/A   Clear
10:54 PM 24.4 °F 20.1 °F 20.1 °F 84% 30.30 in 10.0 mi SSE 3.5 mph - N/A   Clear
11:14 PM 24.6 °F 18.8 °F 20.1 °F 83% 30.30 in 10.0 mi SE 4.6 mph - N/A   Clear
11:35 PM 25.5 °F 17.8 °F 20.3 °F 81% 30.29 in 10.0 mi SE 6.9 mph - N/A   Clear
11:54 PM 25.7 °F 18.0 °F 20.3 °F 80% 30.27 in 10.0 mi ESE 6.9 mph - N/A   Clear